weather.gov     
National Weather Service

Terminal Aerodrome Forecast
NWS Homepage
This page is being discontinued on March 12, 2014.
The same data is available at this site. Please update your bookmarks.
Thank you, and we apologize for the inconvenience.
Please send an email to SR-SRH.Webmaster@noaa.gov with any concerns.


Current Version
Previous Version:    01  02  03  04  05  06  07  08  09  10  11  12  13  14  15  16  17  18  19  20  21  22  23  24  25  26  27  28  29  
[Printable]
845
FTUS45 KABQ 281700
TAFFMN
TAF
KFMN 281739Z 2818/2918 15008KT P6SM VCSH SCT080 BKN120
     FM282300 20011KT P6SM VCTS SCT070CB BKN100
      TEMPO 2823/2902 VRB15G25KT -SHRA BKN060
     FM290200 12010KT P6SM VCSH BKN100
     FM290900 VRB05KT P6SM SCT120 BKN200=


U.S. Dept. of Commerce
NOAA National Weather Service
1325 East West Highway
Silver Spring, MD 20910
E-mail: w-nws.webmaster@noaa.gov
Page last modified: May 16, 2007
NATIONAL WEATHER SERVICE: for Safety, for Work, for Fun - FOR LIFE